Location: ????????
(42.0488°N, 44.0407°E)
Time: 05:09:55
(UTC+00:00)

Cosmos 2360 Rocket - Pass Details

Date: 07 June 2020
Orbit: 832 x 846 km, 71.0° (Epoch: 03 July)

Event Time Altitude Azimuth Distance (km) Brightness Sun altitude
Exits shadow 00:43:53 - 239° (WSW) 2,553 4.0 -7.5°
Reaches altitude 10° 00:44:14 10° 241° (WSW) 2,442 4.0 -7.5°
Maximum altitude 00:49:13 32° 304° (NW) 1,396 3.2 -6.7°
Drops below altitude 10° 00:54:15 10° 7° (N) 2,462 5.4 -6.0°
Sets 00:56:58 0° 17° (NNE) 3,403 6.4 -5.6°
